Погода в Кургане

Погода в Кургане : погода сейчас, прогноз погоды и архив. Всё, что Вы хотите узнать о погоде в Кургане!

Хотите узнать прогноз погоды в Кургане? Тогда Вам сюда: Погода в Кургане

Поиск расширенной информации на нашем сайте:

Другие новости

Новости СМИ2

Главная страница сайта

Новости сайта

02.10.2013

Напоминаем, что на нашем новом сайте вы можете получить высокодетализированные прогнозы погоды по пунктам России, СНГ и мира (включающие важные для авиации метеовеличины, такие как направление и скорость ветра, видимость, явления погоды, количество и форма облачности, нижняя и верхняя граница облачности), а также ознакомиться с разнообразными материалами по авиационной метеорологии и подборкой полезных ссылок на эту тему.

Сайт Метеоцентр.Азия посвящён разработке технологий оптимизации авиаметеорологического обслуживания, включая проектирование и перспективное создание нескольких автоматизированных авиаметеорологических систем:
- система выпуска высокодетальных прогностических карт явлений погоды для нижнего воздушного пространства по России и ближнему зарубежью;
- система верификации прогнозов TAF (выпускаемых синоптиками официальных АМСГ РФ и ближнего зарубежья) и AUTOTAF (выпускаемых сайтом Метеоцентр.Азия) - выявление ошибок, онлайн-сопоставление с фактической погодой METAR, автоматическое внесение коррективов в прогнозы при резком отклонении фактической погоды от прогноза, подсчёт оправдываемости прогнозов по элементам и в целом;
- система обработки, анализа и отображения авиаметеорологической информации для применения провайдерами метеорологической информации.


Погода в Кургане - сегодня

Время (UTC), дата Ветер
(°,м/с) 
Видим.   Явления Облачность Т
(°С)
Тd
(°С)
f(%) Тe
(°С)
Pmin
(гПа)
dP
(гПа)
Po
(мм)
O2
(г/м3)
Тmin Tmax R s Состояние
почвы
12 27.01.15 200 (Ю) 20000 м    10/0 средняя, верхняя 
[Ac trans|Ci fib]
-13.4 -20.6 55 -17  1033.4  -0.2  768  327           
15 27.01.15 200 (Ю) 10 км    10/0 средняя, верхняя 
[Ac trans|Ci fib]
-15.1 -21.3 59 -19  1033.9  0.4  768  329    -11.6       
18 27.01.15 200 (Ю) 10 км    ясно 
-18.3 -23.1 66 -22  1033.6  -0.4  768  333           
21 27.01.15 200 (Ю) 10 км    ясно 
-20.1 -24.1 70 -24  1033.4  -0.3  767  335           
00 28.01.15 200 (Ю) 10 км    ясно 
-21.1 -25.3 68 -26  1033  -0.4  767  337           
03 28.01.15 200 (Ю) 10 км    ясно 
-21.3 -25.7 68 -26  1033  0.1  767  337  -21.4      32  равномерный
сухой снег
100% 
06 28.01.15 200 (Ю) 20000 м    3/0 верхняя 
[Ci]
-19.4 -25.1 61 -24  1032.9  767  334  -21.6         
09 28.01.15 200 (Ю) 20000 м    6/0 верхняя 
[Ci]
-16.5 -23.3 56 -20  1031.6  -1.2  766  330           
12 28.01.15 200 (Ю) 20000 м    6/0 верхняя 
[Ci fib]
-16.1 -22.3 59 -18  1030.6  -0.9  765  329           
15 28.01.15 200 (Ю) 10 км    4/0 верхняя 
[Ci fib]
-17 -21.2 70 -21  1030.5  -0.1  765  330    -15.6       
18 28.01.15 200 (Ю) 10 км    4/0 верхняя 
[Ci fib]
-17.2 -21.3 70 -21  1030  -0.1  765  331           
21 28.01.15 190 (Ю) 10 км    4/0 верхняя 
[Ci fib]
-17 -21.4 69 -21  1028.8  -1.1  764  330           
00 29.01.15 200 (Ю) 10 км    4/0 верхняя 
[Ci fib]
-17.5 -22.4 66 -23  1028.4  -0.4  764  330           
03 29.01.15 200 (Ю) 10 км    4/0 верхняя 
[Ci fib]
-19.3 -23.9 67 -25  1029.1  0.7  764  333  -19.3      32  равномерный
сухой снег
100% 
06 29.01.15 190 (Ю) 20000 м    6/0 верхняя 
[Ci fib]
-17.6 -24 57 -22  1029.6  0.5  765  331  -19.3         
09 29.01.15 200 (Ю) 20000 м    6/0 верхняя 
[Ci fib]
-15.3 -23.2 51 -19  1029.4  0.1  765  328           
12 29.01.15 190 (Ю) 20000 м    8/0 верхняя 
[Ci fib]
-15.4 -22.7 54 -19  1029  -0.4  764  328           
15 29.01.15 200 (Ю) 10 км    8/0 верхняя 
[Ci fib]
-16.7 -22.6 60 -19  1029.1  764  330    -14.7       
18 29.01.15 200 (Ю) 10 км    8/0 верхняя 
[Ci fib]
-17.8 -23.3 62 -22  1029  -0.2  764  331           
21 29.01.15 200 (Ю) 10 км    6/0 верхняя 
[Ci fib]
-18 -24.1 58 -21  1028.6  -0.3  764  331           
00 30.01.15 200 (Ю) 10 км    6/0 верхняя 
[Ci fib]
-17.7 -24.6 55 -22  1027.9  -0.7  763  331           
03 30.01.15 200 (Ю) 10 км    6/0 верхняя 
[Ci fib]
-18.8 -25.2 57 -23  1028.6  0.7  764  332  -18.8      32  равномерный
сухой снег
100% 
06 30.01.15 200 (Ю) 20000 м    8/0 верхняя 
[Ci fib]
-17.8 -25.3 52 -22  1029  0.4  764  331  -19.2         
09 30.01.15 200 (Ю) 20000 м    8/0 верхняя 
[Ci fib]
-14.9 -24 46 -19  1029  0.1  764  327           
12 30.01.15 210 (ЮЗ) 10 км    10/0 средняя, верхняя 
[Ac trans|Ci fib]
-14.5 -22.6 50 -17  1028.9  0.1  764  327           
Время (UTC), дата Ветер
(°,м/с) 
Видим.   Явления Облачность Т
(°С)
Тd
(°С)
f(%) Тe
(°С)
Pmin
(гПа)
dP
(гПа)
Po
(мм)
O2
(г/м3)
Тmin Tmax R s Состояние
почвы

Для получения пояснительной информации подведите курсор к названию столбца.

ПОГОДА в Кургане - архив

Всё, что Вы хотите узнать о погоде в Кургане - удобно и подробно!

Выберите нужную дату (начиная с 1 января 2013* года) и нажмите кнопку "Найти".
Будут отображены архивные сводки погоды по пункту Курган, начиная с указанной даты.


Отображать данные в формате CSV (для использования в таблицах Excel)


Внимание! Наш архив погоды предназначен исключительно для личного некоммерческого использования в познавательных целях. Если Вам необходимы официальные справки о состоянии погоды (для производственных, юридических, коммерческих и т.п. целей), обращайтесь в органы Росгидромета.

*Примечание: данная дата относится к архиву по метеостанциям СССР (Россия, СНГ, Балтия).
Архив по метеостанциям Зарубежной Европы и Азии (кроме Китая) хранится 10 дней, по другим регионам земного шара (Китай, Африка, Америка, Австралия, Океания) - 1 день.

Курган - район местоположения метеостанции


Название, широта, долгота, высота метеостанции:
Курган 55.5°ш. 65.4°д. 74 м над ур. моря [Российская Федерация]

Дополнительная информация

В oтличие oт бoльшинства пoгoдных сайтoв мы публикуем пoдрoбную метеoинфoрмацию в детальнoм прoфессиoнальнoм фoрмате.

Характеристики температуры и влажнoсти вoздуха измеряются на высoте 2 м в тени вдали oт зданий и деревьев.
Скoрoсть ветра измеряется на высoте 10 м (на урoвне рoста челoвека скoрoсть ветра ниже в 1.5-2 раза). Если метеoстанция нахoдится в гoрoде или в лесу, тo скoрoсть ветра занижена на 2-4 м/с пo сравнению с oткрытым местoм. Скoрoсть ветра над акватoриями крупных рек и oзёр, а также на вершинах хoлмoв на 2-5 м/с выше, чем в oбычных услoвиях.
Атмoсфернoе давление в разных тoчках местнoсти мoжет значительнo oтличаться oт давления на метеoстанции, в зависимoсти oт услoвий рельефа (при пoдъёме на 10 м давление пoнижается примернo на 1 мм рт.ст.).